This is the latest recevied weather packets stored in our database for station/object NI4CE-11. If no packets are shown the sender has not sent any weather packets the latest 10 day(s).
| Time | Temp. | Humidity | Pressure | Rain* | Wind** | Luminosity | Snow |
|---|---|---|---|---|---|---|---|
| 1777356329 | 21.11° C | 100% | 1019 hPa | 0 mm | - | - | - |
| 1777356029 | 20.56° C | 100% | 1019.1 hPa | 0 mm | - | - | - |
| 1777355729 | 20° C | 100% | 1019.2 hPa | 0 mm | - | - | - |
| 1777355429 | 20.56° C | 100% | 1019.2 hPa | 0 mm | - | - | - |
| 1777355360 | 20.56° C | 100% | 1019.2 hPa | 0 mm | - | - | - |
| 1777355129 | 20.56° C | 100% | 1019.2 hPa | 0 mm | - | - | - |
| 1777355066 | 21.11° C | 100% | 1019.2 hPa | 0 mm | - | - | - |
| 1777354829 | 20.56° C | 100% | 1019.3 hPa | 0 mm | - | - | - |
| 1777354529 | 20.56° C | 100% | 1019.2 hPa | 0 mm | - | - | - |
| 1777354229 | 21.11° C | 100% | 1019.2 hPa | 0 mm | - | - | - |
| 1777354118 | 21.11° C | 100% | 1019.4 hPa | 0 mm | - | - | - |
| 1777353929 | 20.56° C | 100% | 1019.2 hPa | 0 mm | - | - | - |
| 1777353629 | 20.56° C | 100% | 1019.2 hPa | 0 mm | - | - | - |
| 1777353329 | 20.56° C | 100% | 1019.4 hPa | 0 mm | - | - | - |
| 1777353029 | 21.67° C | 100% | 1019.4 hPa | 0 mm | - | - | - |
| 1777352729 | 20.56° C | 100% | 1019.4 hPa | 0 mm | - | - | - |
| 1777352429 | 21.67° C | 100% | 1019.4 hPa | 0 mm | - | - | - |
| 1777352129 | 21.11° C | 100% | 1019.4 hPa | 0 mm | - | - | - |
| 1777351829 | 21.11° C | 100% | 1019.4 hPa | 0 mm | - | - | - |
| 1777351529 | 21.11° C | 100% | 1019.4 hPa | 0 mm | - | - | - |
| 1777351229 | 21.67° C | 100% | 1019.4 hPa | 0 mm | - | - | - |
| 1777350930 | 21.67° C | 100% | 1019.4 hPa | 0 mm | - | - | - |
| 1777350630 | 21.11° C | 100% | 1019.4 hPa | 0 mm | - | - | - |
| 1777350329 | 21.11° C | 100% | 1019.4 hPa | 0 mm | - | - | - |
| 1777350197 | 21.11° C | 100% | 1019.5 hPa | 0 mm | - | - | - |
* Rain latest hour (hover to see other rain measurements)
** Current wind speed in m/s (hover to see current wind gust speed)